Regional Weather Roundup
Issued by NWS Wakefield, VA

Home | Current Version | Previous Version | Graphics & Text | Print | Product List | Glossary On
Versions: 1 2 3 4 5 6 7 8 9 10 11 12 13 14 15 16 17 18 19 20 21 22 23 24 25 26 27
000
ASUS41 KAKQ 171515
RWRAKQ

REGIONAL WEATHER ROUNDUP
NATIONAL WEATHER SERVICE WAKEFIELD VA
1000 AM EST SUN DEC 17 2017

Note: "fair" indicates few or no clouds below 12,000 feet with no
significant weather and/or obstructions to visibility. * = Denotes
station may not report precipitation (e.g., rain,snow,etc.),
thunder or fog.

VAZ042-051-052>054-056-171600-
NORTHERN VIRGINIA

CITY           SKY/WX    TMP DP  RH WIND       PRES   REMARKS
WASH NATIONAL  PTSUNNY   40  31  70 CALM      30.26F
DULLES         CLOUDY    39  30  70 CALM      30.25F
FORT BELVOIR   CLOUDY    39  28  63 CALM      30.24F
QUANTICO       CLOUDY    37  31  78 CALM      30.28S
FREDERICKSBRG* CLOUDY    34  30  86 CALM      30.26F
STAFFORD*      MOSUNNY   37  32  82 CALM      30.30S
WARRENTON      CLOUDY    38  28  64 CALM      30.25R
CULPEPER*      CLOUDY    37  27  67 CALM      30.26S
MANASSAS*      CLOUDY    34  28  79 CALM      30.27S
LEESBURG*      MOSUNNY   41  32  70 CALM      30.26F
WINCHESTER     CLOUDY    37  27  65 CALM      30.23S
FRONT ROYAL*   MOSUNNY   39  27  60 MISG      30.23S
LURAY*         CLOUDY    34  30  86 CALM      30.25R
$$

VAZ048-049-060>072-079>083-171600-
CENTRAL AND SOUTH CENTRAL VIRGINIA

CITY           SKY/WX    TMP DP  RH WIND       PRES   REMARKS
RICHMOND       PTSUNNY   42  30  62 S6        30.27R
CHESTERFIELD*  NOT AVBL
PETERSBURG*    MOSUNNY   39  27  60 CALM      30.28F
HANOVER        SUNNY     40  27  59 S5        30.29R
TAPPAHANNOCK*  SUNNY     40  29  65 CALM      30.28R
QUINTON*       FAIR      38  29  71 SW3       30.29R
CHARLOTTSVILLE PTSUNNY   43  32  65 CALM      30.24R
GORDONSVILLE*  MOSUNNY   38  29  69 CALM      30.24R
ORANGE*        MOSUNNY   41  30  65 CALM      30.24R
LOUISA*        SUNNY     43  27  53 E5        30.29R
BUMPASS*       FAIR      37  29  72 CALM      30.26R
FARMVILLE*     MOSUNNY   37  32  80 CALM      30.24F
CREWE*         FAIR      36  29  76 S3        30.26S
FORT PICKETT*  NOT AVBL
CHASE CITY*    FAIR      36  27  69 CALM      30.26S
CLARKSVILLE*   FAIR      36  30  80 CALM      30.26F
SOUTH HILL*    CLOUDY    36  31  81 CALM      30.34S
LAWRENCEVILLE* FAIR      39  29  68 CALM      30.27F
EMPORIA*       MOSUNNY   36  30  80 CALM      30.30F
$$

VAZ088>098-171600-
SOUTHEAST VIRGINIA

CITY           SKY/WX    TMP DP  RH WIND       PRES   REMARKS
NORFOLK        SUNNY     43  29  57 SW7       30.29R
VIRGINIA BEACH PTSUNNY   43  27  53 SW5       30.29S
NORFOLK NAVAL  PTSUNNY   44  28  53 W5        30.31R
WEST POINT*    SUNNY    N/A N/A N/A SW3       30.31R
SALUDA*        FAIR      43  30  59 CALM      30.28S
NEWPORT NEWS   SUNNY     42  29  59 SW7       30.29R
LANGLEY AFB    SUNNY     43  29  59 SW8       30.28R
FORT EUSTIS    MOSUNNY   40  30  66 S3        30.27R
WILLIAMSBURG*  MOSUNNY   43  30  61 CALM      30.30R
HR EXEC AP*    FAIR      39  28  64 SW3       30.31R
FRANKLIN*      CLOUDY    37  29  70 CALM      30.31R
US460-WAKEFLD  MOSUNNY   39  29  67 SW3       30.29R
$$

VAZ020-022-025-037-045-171600-
WEST CENTRAL AND SOUTHWEST VIRGINIA

CITY           SKY/WX    TMP DP  RH WIND       PRES   REMARKS
STAUNTON*      CLOUDY    37  28  72 CALM      30.28R
WAYNESBORO*    MOSUNNY   40  26  57 CALM      30.25R
HOT SPRINGS VA CLOUDY    37  21  53 W9        30.21R
LYNCHBURG      CLOUDY    39  31  72 S3        30.25R
DANVILLE       MOSUNNY   36  29  75 CALM      30.27R
SOUTH BOSTON*  FAIR      36  28  72 CALM      30.28R
MARTINSVILLE   MOSUNNY   33  25  71 CALM      30.28R
ROANOKE        CLOUDY    41  28  60 CALM      30.28R
BLACKSBURG     CLOUDY    36  29  77 NW3       30.28R
DUBLIN*        CLOUDY    37  29  74 CALM      30.27R
MARION*        CLOUDY    38  28  66 CALM      30.28R
HILLSVILLE*    PTSUNNY   35  25  67 W5        30.26R
RICHLANDS*     CLOUDY    33  25  71 S3        30.24S
WISE*          CLOUDY    36  30  80 SW8       30.24R
ABINGDON*      CLOUDY    37  31  76 NE3       30.26R
$$

MDZ021>025-VAZ099-100-171600-
SOUTHERN MARYLAND AND THE DELMARVA PENINSULA

CITY           SKY/WX    TMP DP  RH WIND       PRES   REMARKS
PATUXENT RIVER NOT AVBL
BAY BRIDGE APT SUNNY     41  30  65 CALM      30.27S
LEONARDTOWN    MOSUNNY   37  32  81 CALM      30.28R
DOVER          SUNNY     41  37  85 CALM      30.27R
GEORGETOWN     SUNNY     42  32  67 CALM      30.28R
EASTON         MOSUNNY   43  34  70 CALM      30.31R
CAMBRIDGE      SUNNY     41  36  81 CALM      30.27S
SALISBURY      SUNNY     40  34  79 SW5       30.28R
OCEAN CITY     MOSUNNY   42  34  73 S5        30.29R
WALLOPS ISLAND CLOUDY    46  33  60 W3        30.29S
ACCOMACK*      MOSUNNY   48  33  54 SE3       30.28S
$$

NCZ012>017-030>032-171600-
NORTH CENTRAL AND EASTERN NORTH CAROLINA

CITY           SKY/WX    TMP DP  RH WIND       PRES   REMARKS
ROANOKE RAPIDS FAIR      36  30  80 CALM      30.28S
RALEIGH        CLOUDY    39  30  70 CALM      30.28S
ELIZABETH CITY MOSUNNY   42  35  76 SW5       30.30F
AHOSKIE*       MOSUNNY   37  31  78 CALM      30.30S
EDENTON*       MOSUNNY   43  34  70 S3        30.30F
CURRITUCK*     MOSUNNY   41  32  70 SW5       30.31S
KILL DEVIL HLS MOSUNNY   44  32  64 CALM      30.30S
MANTEO         MOSUNNY   41  33  71 SW3       30.32F
CAPE HATTERAS  CLOUDY    49  39  68 W6        30.33S
TARBORO*       NOT AVBL
GOLDSBORO      MOSUNNY   42  32  67 CALM      30.28S
WASHINGTON     MOSUNNY   42  32  68 CALM      30.31F
GREENVILLE     MOSUNNY   43  32  65 CALM      30.31R
NEW BERN       CLOUDY    44  35  70 CALM      30.33S
WILMINGTON     MOSUNNY   51  39  63 CALM      30.33S
$$

VAZ048-171600-
ELSEWHERE

CITY           SKY/WX    TMP DP  RH WIND       PRES   REMARKS
HARRISBURG PA  CLOUDY    32  29  88 CALM      30.26R
BALTIMORE      CLOUDY    41  30  65 NE3       30.26S
ANNAPOLIS      SUNNY     40  31  70 CALM      30.27S
ANDREWS AFB    MOSUNNY   43  29  58 CALM      30.24F
PHILADELPHIA   PTSUNNY   37  25  61 E7        30.29S
HENDERSON NC   CLOUDY    35  27  74 CALM      30.27S
GREENSBORO     CLOUDY    37  28  70 S5        30.25R
ROCKY MOUNT    CLOUDY    39  32  76 SW5       30.30R
$$

VAZ100-171600-
MARINE

STATION/POSITION TIME  TEMP    WIND        PRES    WAVE   SWELL
                       AIR SEA DIR/SP/G            HT/PER HT/PER
                 (UTC) (F)     (DEG/KT/KT) (MB)    (FT/S) (FT/S)
BRANDYWINE LGT   1436   41     280/  4/  5 1025.5F
CAPE MAY NJ      1436   43 40  260/  2/  3 1024.8R
LEWES DE         1436   42 41  260/  2/  3 1025.1R
15NM E FENWICK I 1450   47 51  340/  4/  4 1025.6F   2/ 5   2/ 5
OCEAN-CITY-INLET 1436   41 45  230/  5/  6 1026.0R
WACHAPREAGUE VA  1436   42 38   70/  2/  2 1025.3F
THOMAS POINT MD  1500   38 43  310/  2/  3   N/A
GOOSES REEF MD   1500   43 44   90/  2/  2 1025.1    0
COVE POINT MD    1436   41      80/  2/  3 1025.5S
SOLOMONS ISLAND  1436   38 44  200/  2/  3 1024.7F
BISHOPS HEAD MD  1436   39 35  140/  5/  5 1025.3F
PINEY POINT MD   1448           CALM  /  2   N/A
POTOMAC MD       1500   41 44  210/  2/  2 1024.5    0
CAMBRIDGE MD     1436   38 39              1025.8S
LEWISETTA VA     1436   37 39  260/  2/  3 1025.3R
RAPPAHANNOCK LGT 1448          150/  5/  5 1025.8R
STINGRAY PT      1500   43 44  190/  4/  4 1025.5    1
YORK RVR RNG VA  1448   41     220/  7/  8 1025.9R
YORKTOWN VA      1448   42 45  210/  5/  6 1025.0S
JAMESTOWN VA     1500      43  200/  4/  6   N/A     0
DOMINION TERM VA 1448   39     260/  4/  5 1026.4R
KIPTOPEKE VA     1448      44  190/  5/  5   N/A
CAPE HENRY VA    1448   44     180/  1/  4   N/A
WILLOUBY STN VA  1448          240/  7/  7 1025.9R
S CRANEY ISL VA  1448   40     200/  5/  6 1025.7R
CAPE HENRY BUOY  1500      50                N/A     1/11
1ST LANDING BUOY 1500   41 47  230/  6/  8 1026.0    1
CAPE CHARLES BUO 1451      49                N/A     1/11
64NM E OF VA BCH 1450   51 59  220/  2/  4 1026.3S   2/ 3   2/ 8
DUCK PIER NC     1448   44 52  230/  9/ 10 1025.7S
44100 DUCK FRF   1445      54                N/A     1/10
44056 DUCK FRF   1500      54                N/A     1/11
OREGON INLET NC  1436   42 45  220/  6/  7 1026.5S
HATTERAS NC      1448   47 50  270/  6/  7 1026.8S
DIAMOND SHLS NC  1500   53 71  280/  4/  8 1027.2
CAPE LOOKOUT NC  1500           90/  1/  2 1027.2F
$$




USA.gov is the U.S. government's official web portal to all federal, state and local government web resources and services.